Simultaneous Nadir Overpasses (SNOs) Predictions

Prediction of SNOs between GOES-16 and NPP Satellite Orbit:

Table of predicted SNOs for the next 14.0 days since TLE Epoch: 2/13/2025
Index Date Time (GOES-16) GOES-16 Lat,Lon NPP Lat,Lon Distance(km) Time Diff (sec)
1 02/14/2025 06:18:09 -0.03, -75.19 -0.38, -73.59 181.96 80
2 02/15/2025 18:40:05 0.03, -75.19 -0.80, -78.88 420.70 80
3 02/16/2025 18:24:00 0.03, -75.20 0.25, -74.36 97.00 80
4 02/19/2025 06:24:22 -0.03, -75.22 -0.06, -75.08 16.08 80
5 02/21/2025 18:27:32 0.02, -75.24 -0.11, -75.84 68.25 80
6 02/22/2025 18:11:26 0.01, -75.25 0.89, -71.30 450.06 80
7 02/24/2025 06:33:14 0.01, -75.27 0.28, -76.57 147.17 80
8 02/25/2025 06:11:48 0.01, -75.28 -0.72, -72.03 370.81 80
9 02/26/2025 18:33:43 -0.00, -75.30 -0.43, -77.33 231.02 80
10 02/27/2025 18:17:38 -0.00, -75.31 0.58, -72.79 287.76 80
